Location: Dos Palmas
(32.4468°N, 116.8732°W)
Time: 00:38:26
(UTC+00:00)

Cosmos 2208 Rocket - Pass Details

Date: 20 June 2021
Orbit: 754 x 805 km, 74.0° (Epoch: 01 August)

Event Time Altitude Azimuth Distance (km) Brightness Sun altitude
Exits shadow 09:39:09 59° 315° (NW) 924 4.4 -28.3°
Drops below altitude 10° 09:44:02 10° 9° (N) 2,385 7.4 -27.7°
Sets 09:46:29 0° 13° (NNE) 3,322 8.4 -27.5°
